This demonstration page uses our WeatherBlox Daily Observations layout. Learn more.

Left ArrowRight Arrow

Hourly Observations for September 27, 2015

Temp ( °F °C ) Dew Point ( °F °C ) Humidity (%) Winds ( mph kmh ) Pressure ( in mb ) Visibility ( mi km ) Precip ( " mm )
12:52 am 00:52 Clear 62 16.7 55 12.8 78 78 SSE 7 11 30.02 1017 10 16 0.00 0.00
1:52 am 01:52 Clear 62 16.7 54 12.2 75 75 SSE 6 9 30.02 1017 10 16 0.00 0.00
2:52 am 02:52 Clear 61 16.1 55 12.8 81 81 SSE 5 7 30.01 1016 10 16 0.00 0.00
3:52 am 03:52 Clear 60 15.6 55 12.8 84 84 SSE 6 9 30.00 1016 10 16 0.00 0.00
4:52 am 04:52 Clear 59 15 56 13.3 90 90 SE 3 6 30.00 1016 10 16 0.00 0.00
5:52 am 05:52 Clear 58 14.4 55 12.8 90 90 SE 6 9 30.00 1016 10 16 0.00 0.00
6:52 am 06:52 Clear 58 14.4 55 12.8 90 90 SE 7 11 30.00 1016 10 16 0.00 0.00
7:52 am 07:52 Sunny 58 14.4 56 13.3 93 93 SSE 6 9 30.01 1016 10 16 0.00 0.00
8:52 am 08:52 Sunny 63 17.2 58 14.4 84 84 SSE 8 13 30.00 1016 10 16 0.00 0.00
9:52 am 09:52 Sunny 67 19.4 60 15.6 79 79 S 8 13 29.99 1016 10 16 0.00 0.00
10:52 am 10:52 Sunny 72 22.2 61 16.1 68 68 SSE 8 13 29.98 1015 10 16 0.00 0.00
11:52 am 11:52 Sunny 76 24.4 59 15 56 56 S 13 20 29.96 1015 10 16 0.00 0.00
12:52 pm 12:52 Sunny 79 26.1 58 14.4 49 49 S 14 22 29.94 1014 10 16 0.00 0.00
1:52 pm 13:52 Mostly Sunny 81 27.2 56 13.3 42 42 S 15 24 29.91 1013 10 16 0.00 0.00
2:52 pm 14:52 Mostly Sunny 82 27.8 55 12.8 40 40 S 18 30 29.88 1012 10 16 0.00 0.00
3:52 pm 15:52 Mostly Sunny 83 28.3 54 12.2 37 37 S 15 24 29.87 1012 10 16 0.00 0.00
4:52 pm 16:52 Mostly Sunny 82 27.8 55 12.8 40 40 S 16 26 29.85 1011 10 16 0.00 0.00
5:52 pm 17:52 Sunny 81 27.2 55 12.8 41 41 S 13 20 29.85 1011 10 16 0.00 0.00
6:52 pm 18:52 Sunny 78 25.6 56 13.3 47 47 S 7 11 29.86 1011 10 16 0.00 0.00
7:52 pm 19:52 Clear 72 22.2 59 15 64 64 SE 8 13 29.87 1012 10 16 0.00 0.00
8:52 pm 20:52 Clear 69 20.6 58 14.4 68 68 SSE 8 13 29.88 1012 10 16 0.00 0.00
9:52 pm 21:52 Clear 70 21.1 61 16.1 73 73 SSE 13 20 29.89 1012 10 16 0.00 0.00
10:52 pm 22:52 Clear 68 20 62 16.7 81 81 SSE 9 15 29.89 1012 10 16 0.00 0.00
11:52 pm 23:52 Clear 69 20.6 61 16.1 76 76 S 14 22 29.89 1012 10 16 0.00 0.00

Powered by AerisWeather